Location: Invercargill
(46.4000°S, 168.3500°E)
Time: 18:11:52
(UTC+12:00)

SL-16 R/B - Pass Details

Date: 14 May 2021
Orbit: 842 x 848 km, 71.0° (Epoch: 14 June)

Event Time Altitude Azimuth Distance (km) Brightness Sun altitude
Rises 20:04:13 0° 341° (NNW) 3,394 5.6 -27.3°
Reaches altitude 10° 20:06:39 10° 342° (NNW) 2,467 4.8 -27.7°
Enters shadow 20:10:50 51° 355° (N) 1,066 2.6 -28.5°
